This is the latest recevied weather packets stored in our database for station/object EA8BQU-10. If no packets are shown the sender has not sent any weather packets the latest 1 day(s).
| Time | Temp. | Humidity | Pressure | Rain* | Wind** | Luminosity | Snow |
|---|---|---|---|---|---|---|---|
| 1778095856 | 21.11° C | 97% | 1014.6 hPa | - | - | - | - |
| 1778094956 | 21.11° C | 97% | 1014.4 hPa | - | - | - | - |
| 1778090455 | 21.11° C | 95% | 1014.2 hPa | - | - | - | - |
| 1778088663 | 21.67° C | 95% | 1014.2 hPa | - | - | - | - |
| 1778085962 | 21.67° C | 95% | 1014.6 hPa | - | - | - | - |
| 1778085062 | 21.67° C | 96% | 1014.7 hPa | - | - | - | - |
| 1778084162 | 21.67° C | 96% | 1014.5 hPa | - | - | - | - |
| 1778078759 | 21.67° C | 97% | 1015.4 hPa | - | - | - | - |
| 1778077859 | 21.67° C | 96% | 1015.6 hPa | - | - | - | - |
| 1778076959 | 21.67° C | 96% | 1015.7 hPa | - | - | - | - |
| 1778071553 | 22.22° C | 93% | 1016 hPa | - | - | - | - |
| 1778069753 | 22.22° C | 94% | 1015.9 hPa | - | - | - | - |
| 1778068853 | 21.67° C | 94% | 1015.9 hPa | - | - | - | - |
| 1778067953 | 21.67° C | 96% | 1016.1 hPa | - | - | - | - |
| 1778066157 | 21.11° C | 97% | 1016.1 hPa | - | - | - | - |
| 1778062556 | 21.11° C | 98% | 1015.9 hPa | - | - | - | - |
| 1778060756 | 21.11° C | 99% | 1015.7 hPa | - | - | - | - |
| 1778059856 | 21.11° C | 99% | 1015.6 hPa | - | - | - | - |
| 1778058956 | 21.11° C | 99% | 1015.5 hPa | - | - | - | - |
| 1778054454 | 21.11° C | 100% | 1015 hPa | - | - | - | - |
| 1778053554 | 21.11° C | 100% | 1014.7 hPa | - | - | - | - |
| 1778052654 | 21.11° C | 100% | 1014.7 hPa | - | - | - | - |
| 1778051754 | 21.11° C | 100% | 1014.6 hPa | - | - | - | - |
| 1778050854 | 21.11° C | 100% | 1014.5 hPa | - | - | - | - |
| 1778049954 | 21.11° C | 100% | 1014.3 hPa | - | - | - | - |
* Rain since midnight (hover to see other rain measurements)
** Current wind speed in m/s (hover to see current wind gust speed)